Location: ??????????
(42.1626°N, 44.1160°E)
Time: 14:22:34
(UTC+00:00)

SeaSat 1 - Pass Details

Date: 03 March 2021
Orbit: 744 x 747 km, 108.0° (Epoch: 20 April)

Event Time Altitude Azimuth Distance (km) Brightness Sun altitude
Rises 16:16:05 0° 25° (NNE) 3,199 5.5 -15.6°
Reaches altitude 10° 16:18:22 10° 24° (NNE) 2,271 4.8 -16.0°
Maximum altitude 16:23:18 78° 299° (WNW) 768 2.6 -17.0°
Drops below altitude 10° 16:28:13 10° 213° (SSW) 2,258 5.2 -17.9°
Sets 16:30:28 0° 212° (SSW) 3,178 6.0 -18.3°
